When you browse on this site, cookies collect data to enhance your experience and personalize the content and advertising you see.
Visit our Privacy Policy to learn more. By continuing to use the site, you agree to this use of cookies and data.
  • In Switzerland
  • List of Countries
  • For 7 days
  • Water Temperature
  • Weather Map
  • Weather Widgets
  • user-avatar
    Login

    Hourly Weather Yangcun

    Today, 28 May, Thursday

    Time Temperature Precipitation Wind Pressure Humidity
    00:00 +21°C° 0 mm 3 mps 754 mmHg 43%
    01:00 +20°C° 0 mm 2 mps 754 mmHg 45%
    02:00 +19°C° 0 mm 2 mps 754 mmHg 50%
    03:00 +19°C° 0 mm 2 mps 754 mmHg 49%
    04:00 +18°C° 0 mm 2 mps 754 mmHg 48%
    05:00 +19°C° 0 mm 1 mps 754 mmHg 47%
    06:00 +20°C° 0 mm 2 mps 754 mmHg 40%
    07:00 +23°C° 0 mm 2 mps 754 mmHg 33%
    08:00 +26°C° 0 mm 3 mps 754 mmHg 27%
    09:00 +28°C° 0 mm 4 mps 754 mmHg 24%
    10:00 +30°C° 0 mm 6 mps 754 mmHg 20%
    11:00 +34°C° 0 mm 7 mps 753 mmHg 17%
    12:00 +35°C° 0 mm 7 mps 753 mmHg 16%
    13:00 +36°C° 0 mm 7 mps 752 mmHg 15%
    14:00 +36°C° 0 mm 7 mps 752 mmHg 15%
    15:00 +38°C° 0 mm 6 mps 751 mmHg 14%
    16:00 +37°C° 0 mm 5 mps 751 mmHg 14%
    17:00 +39°C° 0 mm 5 mps 751 mmHg 13%
    18:00 +35°C° 0 mm 4 mps 751 mmHg 18%
    19:00 +32°C° 0 mm 4 mps 751 mmHg 23%
    20:00 +29°C° 0 mm 4 mps 751 mmHg 28%
    21:00 +27°C° 0 mm 4 mps 752 mmHg 34%
    22:00 +25°C° 0 mm 5 mps 752 mmHg 39%
    23:00 +23°C° 0 mm 5 mps 753 mmHg 45%

    Tomorrow, 29 May, Friday

    Time Temperature Precipitation Wind Pressure Humidity
    00:00 +22°C° 0 mm 5 mps 753 mmHg 50%
    01:00 +20°C° 0 mm 5 mps 753 mmHg 55%
    02:00 +19°C° 0 mm 5 mps 753 mmHg 60%
    03:00 +19°C° 0 mm 4 mps 753 mmHg 63%
    04:00 +18°C° 0 mm 4 mps 753 mmHg 66%
    05:00 +18°C° 0 mm 3 mps 753 mmHg 68%
    06:00 +20°C° 0 mm 3 mps 753 mmHg 63%
    07:00 +22°C° 0 mm 3 mps 753 mmHg 57%
    08:00 +25°C° 0 mm 4 mps 754 mmHg 51%
    09:00 +27°C° 0 mm 3 mps 754 mmHg 42%
    10:00 +30°C° 0 mm 2 mps 754 mmHg 33%
    11:00 +34°C° 0 mm 2 mps 754 mmHg 24%
    12:00 +36°C° 0 mm 2 mps 753 mmHg 20%
    13:00 +37°C° 0 mm 3 mps 753 mmHg 17%
    14:00 +39°C° 0 mm 3 mps 752 mmHg 14%
    15:00 +40°C° 0 mm 4 mps 752 mmHg 13%
    16:00 +40°C° 0 mm 4 mps 752 mmHg 13%
    17:00 +40°C° 0 mm 5 mps 752 mmHg 13%
    18:00 +36°C° 0 mm 6 mps 752 mmHg 19%
    19:00 +34°C° 0 mm 7 mps 753 mmHg 25%
    20:00 +31°C° 0 mm 8 mps 754 mmHg 31%
    21:00 +31°C° 0.1 mm 8 mps 754 mmHg 34%
    22:00 +29°C° 0.1 mm 8 mps 755 mmHg 38%
    23:00 +28°C° 0.1 mm 8 mps 756 mmHg 41%

    Day after tomorrow, 30 May, Saturday

    Time Temperature Precipitation Wind Pressure Humidity
    00:00 +28°C° 0 mm 8 mps 756 mmHg 41%
    01:00 +28°C° 0 mm 7 mps 756 mmHg 40%
    02:00 +28°C° 0 mm 6 mps 756 mmHg 39%
    03:00 +27°C° 0 mm 6 mps 756 mmHg 41%
    04:00 +26°C° 0 mm 5 mps 756 mmHg 43%
    05:00 +25°C° 0 mm 4 mps 756 mmHg 45%
    06:00 +26°C° 0 mm 4 mps 756 mmHg 43%
    07:00 +27°C° 0 mm 5 mps 757 mmHg 40%
    08:00 +29°C° 0 mm 5 mps 757 mmHg 37%
    09:00 +30°C° 0 mm 6 mps 757 mmHg 34%
    10:00 +32°C° 0 mm 7 mps 757 mmHg 30%
    11:00 +34°C° 0 mm 7 mps 757 mmHg 27%
    12:00 +34°C° 0 mm 8 mps 756 mmHg 26%
    13:00 +34°C° 0 mm 8 mps 755 mmHg 25%
    14:00 +35°C° 0 mm 9 mps 754 mmHg 24%
    15:00 +33°C° 0 mm 8 mps 756 mmHg 28%
    16:00 +32°C° 0 mm 8 mps 756 mmHg 30%
    17:00 +29°C° 0 mm 8 mps 757 mmHg 32%
    18:00 +28°C° 0 mm 7 mps 757 mmHg 39%
    19:00 +26°C° 0 mm 6 mps 757 mmHg 45%
    20:00 +25°C° 0 mm 5 mps 757 mmHg 52%
    21:00 +23°C° 0 mm 5 mps 757 mmHg 56%
    22:00 +22°C° 0 mm 4 mps 757 mmHg 59%
    23:00 +22°C° 0 mm 4 mps 757 mmHg 63%

    31 May, Sunday

    Time Temperature Precipitation Wind Pressure Humidity
    00:00 +22°C° 0 mm 4 mps 757 mmHg 64%
    01:00 +21°C° 0 mm 3 mps 757 mmHg 65%
    02:00 +21°C° 0 mm 3 mps 756 mmHg 66%
    03:00 +21°C° 0 mm 3 mps 756 mmHg 69%
    04:00 +20°C° 0 mm 3 mps 756 mmHg 72%
    05:00 +19°C° 0 mm 3 mps 756 mmHg 75%
    06:00 +20°C° 0.3 mm 3 mps 755 mmHg 73%
    07:00 +21°C° 0.3 mm 4 mps 755 mmHg 71%
    08:00 +22°C° 0.3 mm 4 mps 755 mmHg 69%
    09:00 +22°C° 1.2 mm 5 mps 754 mmHg 69%
    10:00 +23°C° 1.2 mm 5 mps 754 mmHg 70%
    11:00 +23°C° 1.2 mm 6 mps 753 mmHg 70%
    12:00 +26°C° 0.2 mm 6 mps 753 mmHg 55%
    13:00 +28°C° 0.2 mm 7 mps 752 mmHg 40%
    14:00 +30°C° 0.2 mm 7 mps 752 mmHg 25%
    15:00 +30°C° 0 mm 7 mps 752 mmHg 23%
    16:00 +30°C° 0 mm 7 mps 752 mmHg 20%
    17:00 +30°C° 0 mm 7 mps 752 mmHg 18%
    18:00 +29°C° 0 mm 6 mps 752 mmHg 18%
    19:00 +27°C° 0 mm 5 mps 753 mmHg 19%
    20:00 +26°C° 0 mm 4 mps 753 mmHg 19%
    21:00 +25°C° 0 mm 3 mps 754 mmHg 20%
    22:00 +24°C° 0 mm 2 mps 754 mmHg 21%
    23:00 +23°C° 0 mm 2 mps 754 mmHg 22%

    1 June, Monday

    Time Temperature Precipitation Wind Pressure Humidity
    00:00 +23°C° 0 mm 2 mps 754 mmHg 23%
    01:00 +23°C° 0 mm 1 mps 754 mmHg 23%
    02:00 +22°C° 0 mm 1 mps 754 mmHg 24%
    03:00 +22°C° 0 mm 1 mps 754 mmHg 25%
    04:00 +20°C° 0 mm 2 mps 754 mmHg 26%
    05:00 +20°C° 0 mm 2 mps 754 mmHg 27%
    06:00 +22°C° 0 mm 3 mps 754 mmHg 25%
    07:00 +25°C° 0 mm 3 mps 754 mmHg 24%
    08:00 +27°C° 0 mm 3 mps 755 mmHg 22%
    09:00 +29°C° 0 mm 4 mps 754 mmHg 20%
    10:00 +32°C° 0 mm 5 mps 753 mmHg 17%
    11:00 +34°C° 0 mm 6 mps 753 mmHg 15%
    12:00 +35°C° 0 mm 7 mps 752 mmHg 12%
    13:00 +38°C° 0 mm 7 mps 751 mmHg 10%
    14:00 +39°C° 0 mm 7 mps 750 mmHg 8%
    15:00 +40°C° 0 mm 7 mps 749 mmHg 8%
    16:00 +40°C° 0 mm 8 mps 748 mmHg 8%
    17:00 +40°C° 0 mm 8 mps 747 mmHg 8%
    18:00 +38°C° 0 mm 6 mps 747 mmHg 9%
    19:00 +35°C° 0 mm 5 mps 748 mmHg 11%
    20:00 +33°C° 0 mm 4 mps 748 mmHg 13%
    21:00 +30°C° 0 mm 3 mps 749 mmHg 14%
    22:00 +29°C° 0 mm 2 mps 749 mmHg 15%
    23:00 +27°C° 0 mm 2 mps 750 mmHg 16%

    2 June, Tuesday

    Time Temperature Precipitation Wind Pressure Humidity
    00:00 +26°C° 0 mm 2 mps 750 mmHg 17%
    01:00 +26°C° 0 mm 1 mps 750 mmHg 17%
    02:00 +25°C° 0 mm 1 mps 751 mmHg 18%
    03:00 +24°C° 0 mm 1 mps 751 mmHg 20%
    04:00 +24°C° 0 mm 1 mps 751 mmHg 21%
    05:00 +23°C° 0 mm 2 mps 751 mmHg 22%
    06:00 +25°C° 0 mm 2 mps 752 mmHg 21%
    07:00 +27°C° 0 mm 1 mps 752 mmHg 19%
    08:00 +30°C° 0 mm 1 mps 752 mmHg 17%
    09:00 +32°C° 0 mm 2 mps 752 mmHg 15%
    10:00 +35°C° 0 mm 3 mps 751 mmHg 13%
    11:00 +37°C° 0 mm 4 mps 751 mmHg 11%
    12:00 +38°C° 0 mm 4 mps 751 mmHg 10%
    13:00 +40°C° 0 mm 4 mps 750 mmHg 9%
    14:00 +41°C° 0 mm 4 mps 749 mmHg 8%
    15:00 +41°C° 0 mm 4 mps 749 mmHg 8%
    16:00 +42°C° 0 mm 4 mps 748 mmHg 8%
    17:00 +42°C° 0 mm 4 mps 747 mmHg 8%
    18:00 +40°C° 0 mm 4 mps 747 mmHg 9%
    19:00 +37°C° 0 mm 5 mps 747 mmHg 11%
    20:00 +35°C° 0 mm 5 mps 746 mmHg 12%
    21:00 +34°C° 0 mm 6 mps 746 mmHg 12%
    22:00 +34°C° 0 mm 7 mps 746 mmHg 12%
    23:00 +34°C° 0 mm 7 mps 747 mmHg 11%
    Show more